Theta_e
341 344 344 344 343 341 340 344 347 347 346 344 343 340 335 330 328 325 320 318 316 314
344 343 345 345 344 343 340 344 345 346 343 342 339 336 333 330 326 322 317 315 316 315
346 346 346 345 343 342 342 345 344 343 341 339 337 333 329 326 325 318 316 314 314 315
348 347 347 346 345 344 344 345 345 342 339 335 332 331 327 322 320 317 315 313 313 315
352 349 347 346 345 346 345 346 345 342 337 332 330 329 325 319 318 315 314 315 314 316
349 351 349 347 345 346 346 345 343 340 335 331 329 328 324 320 316 316 315 314 315 314
347 351 352 350 347 346 346 343 341 339 335 331 328 326 322 318 315 314 315 315 315 315
350 350 352 350 348 347 345 343 341 336 332 329 328 326 320 316 314 314 315 316 316 314
352 351 352 348 347 346 344 341 338 335 333 329 330 329 327 319 314 315 314 311 310 314
353 351 352 348 345 343 341 339 337 335 333 330 328 326 327 326 314 314 311 308 308 312
353 352 350 348 344 343 341 338 337 333 332 330 328 325 326 328 314 312 310 305 306 307
352 352 349 346 345 343 339 337 334 333 330 327 326 324 325 320 313 310 309 305 306 308
352 351 349 347 345 343 340 336 334 331 329 327 324 321 322 318 315 312 310 309 308 319
351 351 349 347 345 340 337 335 332 331 326 324 323 322 321 318 315 315 312 312 310 312
Wind_Speed
9 8 6 7 5 5 6 6 6 6 5 6 6 5 5 4 4 5 4 3 1 1
9 9 9 9 6 6 5 5 6 6 6 6 6 7 7 5 6 5 3 3 3 1
12 11 8 8 8 7 6 6 7 6 6 7 7 6 7 5 5 6 3 3 4 2
12 11 9 9 9 9 7 8 8 9 9 8 7 6 6 6 6 6 6 3 5 3
14 12 11 11 10 9 10 9 11 10 9 8 7 7 8 8 6 7 7 5 5 3
14 14 14 13 11 11 10 9 9 11 11 9 7 7 7 7 7 6 6 6 6 6
15 15 15 13 13 12 12 12 11 11 11 9 8 7 7 7 6 6 6 6 6 6
15 13 12 12 14 13 13 12 13 12 9 8 8 7 8 7 7 7 6 5 6 6
15 14 14 12 12 12 12 12 13 13 14 12 8 13 16 12 7 7 8 7 5 5
13 15 16 13 13 13 14 13 14 13 14 12 9 18 18 18 7 7 7 7 6 4
14 16 15 15 16 15 14 16 14 13 12 12 10 20 18 18 8 6 7 7 8 7
18 18 18 19 18 16 14 13 14 14 13 14 12 15 15 11 6 7 8 6 6 7
16 18 19 19 19 16 14 15 14 15 16 18 12 26 21 15 6 7 6 5 6 12
13 14 13 12 11 13 14 12 13 13 10 11 15 18 26 23 11 9 7 6 5 5
Wind_Direction
183 192 188 181 171 183 187 193 177 182 175 156 141 138 138 134 133 122 111 117 90 102
185 188 188 184 177 185 182 182 186 174 155 154 155 160 151 143 140 126 124 121 106 73
191 194 189 170 179 180 183 175 166 160 160 165 167 154 140 140 142 135 142 137 129 107
197 193 182 186 186 189 174 178 170 170 168 171 162 157 138 145 149 144 141 137 136 126
196 193 190 191 192 179 188 180 179 173 168 168 164 155 151 156 162 155 155 153 133 132
199 194 198 194 190 182 181 177 174 171 171 170 167 160 164 162 163 167 159 154 145 147
202 203 199 192 188 181 178 170 173 177 173 164 162 163 159 152 158 154 154 154 158 154
200 198 202 194 188 180 177 176 173 165 163 156 163 164 158 159 161 153 153 152 159 164
193 187 195 188 190 180 176 170 167 174 171 169 174 169 171 164 158 161 154 162 168 186
189 181 191 179 176 178 177 169 180 177 172 178 171 166 168 169 155 162 167 159 162 173
195 194 187 180 183 177 176 180 179 178 183 171 178 168 165 167 155 160 175 175 172 166
195 195 188 188 182 179 174 179 177 176 168 170 174 169 151 145 167 164 176 190 180 166
205 200 196 190 183 180 183 182 174 181 186 185 181 156 157 151 166 193 174 180 193 194
208 204 198 190 174 184 184 174 178 180 163 169 168 181 169 162 163 189 183 176 192 209